Location: ??????
(55.2000°N, 38.3000°E)
Time: 18:30:48
(UTC+00:00)

NOSS 3-2 (A) - Pass Details

Date: 15 November 2025
Orbit: 668 x 1535 km, 63.4° (Epoch: 11 December)

Event Time Altitude Azimuth Distance (km) Brightness Sun altitude
Exits shadow 03:19:10 16° 307° (NW) 2,529 5.1 -14.0°
Maximum altitude 03:25:05 75° 225° (SW) 1,270 4.0 -13.2°
Drops below altitude 10° 03:33:36 10° 142° (SE) 3,489 7.2 -12.0°
Sets 03:36:44 0° 141° (SE) 4,548 8.0 -11.6°
